MLP759 SBGR-LIMC

Flight info

Callsign MLP759
Flight time N/A
Altitude 35000
Route VUMEV UZ14 AMBET UN857 KOPDU/N0492F370 UN857 GUNET N857 BIPET/N0488F390 N857 DEREV/N0488F380 N857 LZR N871 KORAL UG5 SONSO DCT ADUBI/N0480F400 N871 VJF N851 MGA M985 BCN N870 DIBER DCT STP Y15 PIGOS DCT NOSTA DCT ASTIG
Aircraft A359/H-SDE2E3GHIJ3J4J5LM1ORWXY/LB1D1

Departure

Time N/A
Airport São Paulo/Guarulhos–Governor André Franco Montoro International Airport (SBGR)

Arrival

Time 2026-02-19 15:07
Airport Milan Malpensa International Airport (LIMC)
Time Latitude Longitude Altitude Speed Heading
2026-02-19 14:40 43.37505 6.89726 37052 ft 499 kts 52°
2026-02-19 14:41 43.39545 6.93620 37257 ft 499 kts 52°
2026-02-19 14:41 43.41548 6.97446 37457 ft 499 kts 52°
2026-02-19 14:41 43.43523 7.01216 37649 ft 499 kts 52°
2026-02-19 14:41 43.45551 7.05090 37846 ft 499 kts 52°
2026-02-19 14:42 43.47571 7.08957 38044 ft 499 kts 52°
2026-02-19 14:42 43.49582 7.12820 38228 ft 499 kts 52°
2026-02-19 14:42 43.51602 7.16709 38400 ft 500 kts 52°
2026-02-19 14:42 43.53607 7.20570 38561 ft 500 kts 52°
2026-02-19 14:43 43.55634 7.24471 38720 ft 500 kts 52°
2026-02-19 14:43 43.57653 7.28356 38888 ft 500 kts 52°
2026-02-19 14:43 43.59683 7.32267 39049 ft 500 kts 52°
2026-02-19 14:43 43.61680 7.36126 39197 ft 501 kts 52°
2026-02-19 14:44 43.63704 7.40050 39342 ft 501 kts 53°
2026-02-19 14:44 43.67720 7.47856 39563 ft 502 kts 53°
2026-02-19 14:45 43.71767 7.55715 39576 ft 502 kts 53°
2026-02-19 14:45 43.75787 7.63544 39578 ft 502 kts 52°
2026-02-19 14:45 43.77939 7.67350 39431 ft 501 kts 47°
2026-02-19 14:46 43.80343 7.70848 38733 ft 505 kts 41°
2026-02-19 14:46 43.83024 7.73970 37849 ft 509 kts 34°
2026-02-19 14:46 43.85969 7.76688 37061 ft 509 kts 28°
2026-02-19 14:46 43.89085 7.78927 36378 ft 506 kts 21°
2026-02-19 14:47 43.92351 7.80713 35729 ft 502 kts 17°
2026-02-19 14:47 43.95631 7.82263 35058 ft 501 kts 15°
2026-02-19 14:47 43.98933 7.83768 34339 ft 502 kts 15°
2026-02-19 14:47 44.02113 7.85273 33604 ft 504 kts 19°
2026-02-19 14:48 44.05300 7.87295 32823 ft 507 kts 24°
2026-02-19 14:48 44.11575 7.91730 31235 ft 509 kts 24°
2026-02-19 14:48 44.14716 7.93949 30410 ft 510 kts 24°
2026-02-19 14:49 44.17894 7.96174 29561 ft 511 kts 24°
2026-02-19 14:49 44.21051 7.98369 28723 ft 511 kts 24°
2026-02-19 14:49 44.24091 8.00477 27930 ft 510 kts 24°
2026-02-19 14:49 44.27276 8.02682 27073 ft 509 kts 24°
2026-02-19 14:50 44.30405 8.04848 26406 ft 503 kts 24°
2026-02-19 14:50 44.33499 8.06993 25845 ft 496 kts 24°
2026-02-19 14:50 44.36572 8.09125 25290 ft 488 kts 24°
2026-02-19 14:50 44.39598 8.11224 24745 ft 481 kts 24°
2026-02-19 14:51 44.42544 8.13269 24191 ft 474 kts 24°
2026-02-19 14:51 44.45511 8.15330 23602 ft 469 kts 24°
2026-02-19 14:51 44.48389 8.17333 23016 ft 463 kts 24°
2026-02-19 14:51 44.51274 8.19343 22420 ft 458 kts 24°
2026-02-19 14:52 44.54087 8.21304 21832 ft 453 kts 24°
2026-02-19 14:52 44.59631 8.25174 20654 ft 443 kts 24°
2026-02-19 14:52 44.62342 8.27068 20071 ft 438 kts 24°
2026-02-19 14:53 44.65043 8.28956 19482 ft 433 kts 24°
2026-02-19 14:53 44.67713 8.30826 18891 ft 428 kts 24°
2026-02-19 14:53 44.70347 8.32673 18304 ft 424 kts 24°
2026-02-19 14:53 44.72960 8.34509 17722 ft 419 kts 24°
2026-02-19 14:54 44.75536 8.36320 17132 ft 415 kts 24°
2026-02-19 14:54 44.78105 8.38126 16519 ft 411 kts 24°
2026-02-19 14:54 44.80638 8.39909 16084 ft 404 kts 24°
2026-02-19 14:54 44.83130 8.41666 15678 ft 396 kts 24°
2026-02-19 14:55 44.85539 8.43367 15294 ft 388 kts 24°
2026-02-19 14:55 44.87934 8.45060 14913 ft 381 kts 24°
2026-02-19 14:55 44.90283 8.46720 14540 ft 374 kts 24°
2026-02-19 14:55 44.92553 8.48325 14186 ft 368 kts 24°
2026-02-19 14:56 44.94840 8.49945 13800 ft 361 kts 24°
2026-02-19 14:56 44.99070 8.52946 12457 ft 329 kts 24°
2026-02-19 14:56 45.01072 8.54366 11763 ft 317 kts 24°
2026-02-19 14:57 45.03011 8.55740 11097 ft 306 kts 24°
2026-02-19 14:57 45.04885 8.57069 10463 ft 297 kts 24°
2026-02-19 14:57 45.06685 8.58347 9853 ft 289 kts 25°
2026-02-19 14:57 45.08451 8.59600 9177 ft 285 kts 25°
2026-02-19 14:58 45.10227 8.60863 8526 ft 287 kts 25°
2026-02-19 14:58 45.12007 8.62124 8225 ft 285 kts 25°
2026-02-19 14:58 45.13762 8.63368 7964 ft 281 kts 25°
2026-02-19 14:58 45.15491 8.64600 7657 ft 279 kts 25°
2026-02-19 14:59 45.17211 8.65830 7341 ft 278 kts 26°
2026-02-19 14:59 45.18925 8.67069 7032 ft 276 kts 26°
2026-02-19 14:59 45.20623 8.68298 6730 ft 275 kts 26°
2026-02-19 14:59 45.22325 8.69522 6633 ft 273 kts 26°
2026-02-19 15:00 45.24036 8.70746 6629 ft 274 kts 26°
2026-02-19 15:00 45.27439 8.73194 6619 ft 274 kts 26°
2026-02-19 15:00 45.29114 8.74399 6567 ft 262 kts 26°
2026-02-19 15:01 45.30691 8.75532 6149 ft 253 kts 26°
2026-02-19 15:01 45.32240 8.76642 5746 ft 244 kts 26°
2026-02-19 15:01 45.33729 8.77712 5354 ft 237 kts 26°
2026-02-19 15:01 45.35177 8.78732 4982 ft 229 kts 20°
2026-02-19 15:02 45.36698 8.79239 4593 ft 223 kts
2026-02-19 15:02 45.38226 8.79145 4338 ft 220 kts 352°
2026-02-19 15:02 45.39721 8.78798 4146 ft 217 kts 349°
2026-02-19 15:02 45.41188 8.78384 4021 ft 208 kts 348°
2026-02-19 15:03 45.42539 8.77992 3992 ft 191 kts 348°
2026-02-19 15:03 45.43815 8.77624 3991 ft 186 kts 348°
2026-02-19 15:03 45.45087 8.77263 3967 ft 187 kts 348°
2026-02-19 15:03 45.46361 8.76905 3770 ft 186 kts 348°
2026-02-19 15:04 45.47632 8.76551 3525 ft 185 kts 349°
2026-02-19 15:04 45.50131 8.75859 3043 ft 183 kts 349°
2026-02-19 15:04 45.51375 8.75515 2800 ft 181 kts 349°
2026-02-19 15:05 45.52599 8.75176 2560 ft 177 kts 348°
2026-02-19 15:05 45.53795 8.74846 2325 ft 173 kts 348°
2026-02-19 15:05 45.54964 8.74522 2095 ft 170 kts 348°
2026-02-19 15:05 45.56113 8.74207 1863 ft 164 kts 346°
2026-02-19 15:06 45.57207 8.73903 1649 ft 156 kts 346°
2026-02-19 15:06 45.58242 8.73618 1441 ft 147 kts 346°
2026-02-19 15:06 45.59240 8.73340 1252 ft 146 kts 346°
2026-02-19 15:06 45.60236 8.73065 1063 ft 146 kts 346°
2026-02-19 15:07 45.61218 8.72794 859 ft 144 kts 346°
2026-02-19 15:07 45.62159 8.72527 781 ft 118 kts 347°
2026-02-19 15:07 45.62733 8.72368 781 ft 51 kts 350°
2026-02-19 15:07 45.62956 8.72305 781 ft 29 kts 347°
2026-02-19 15:08 45.63141 8.72179 781 ft 30 kts 322°
2026-02-19 15:08 45.63291 8.71745 781 ft 22 kts 253°
2026-02-19 15:08 45.63182 8.71684 781 ft 19 kts 164°
2026-02-19 15:09 45.63050 8.71721 781 ft 20 kts 170°
2026-02-19 15:09 45.62908 8.71760 781 ft 21 kts 170°
2026-02-19 15:09 45.62755 8.71802 781 ft 23 kts 170°
2026-02-19 15:09 45.62592 8.71844 781 ft 24 kts 168°
2026-02-19 15:10 45.62429 8.71893 781 ft 22 kts 169°
2026-02-19 15:10 45.62270 8.71935 781 ft 24 kts 169°
2026-02-19 15:10 45.62149 8.71964 781 ft 10 kts 185°
2026-02-19 15:10 45.62114 8.71895 781 ft 9 kts 257°
2026-02-19 15:11 45.62108 8.71849 781 ft 0 kts 260°